Theta_e
307 307 307 307 307 307 307 307 307 307 307 307 307 307 307 308 309 310 311 311 311 311 310 311 311 311 311 311 311 311 311 312 312 313 315 316 314 314 314 313 314 314 314 315 314 315 315 316 316 315 317 317 318 320 319 317 315 320 325 322 320 321 319 319 320 320 320 319 318 317 318 318 317 318 317 316 317 316 316 315 315 314 314 314 313 313 313 313
308 307 307 307 308 307 308 307 308 307 308 308 307 308 308 308 309 310 310 310 310 310 310 310 311 311 310 311 311 311 312 311 313 317 317 314 314 314 314 314 314 314 315 315 315 315 316 316 316 315 316 317 317 318 320 321 317 321 325 322 320 320 318 319 320 319 320 319 318 317 317 317 317 317 317 316 317 317 316 315 315 315 314 314 313 312 312 313
309 309 308 308 308 308 308 308 308 308 308 308 308 308 308 308 309 309 309 309 309 310 310 310 311 310 311 311 311 312 312 312 317 320 317 313 314 314 314 315 314 314 314 315 315 315 315 315 315 315 316 316 317 317 319 320 319 319 322 322 320 318 317 318 319 318 318 319 318 318 317 316 317 317 316 316 317 317 316 315 316 315 314 314 313 312 312 312
311 311 310 310 309 308 308 308 308 308 308 308 308 308 308 309 309 309 309 309 310 310 310 310 310 310 311 311 311 311 311 314 318 318 315 313 314 314 315 315 314 314 314 314 316 315 315 315 315 316 316 317 316 317 318 318 319 319 319 321 318 316 317 317 318 318 317 318 317 317 316 316 317 316 316 316 316 317 315 314 315 315 313 313 313 312 311 312
311 311 311 311 311 310 310 309 309 308 308 308 308 308 309 309 309 309 309 310 310 310 310 310 310 310 310 311 311 311 313 318 317 314 313 314 314 314 314 314 314 314 314 315 316 316 315 316 316 316 316 317 317 317 318 318 318 319 319 319 317 317 318 317 317 317 316 316 317 317 316 316 317 316 316 316 317 317 315 313 312 313 312 312 312 312 312 312
309 309 310 310 311 311 311 311 310 310 309 309 309 309 309 309 309 309 309 310 309 310 310 310 310 310 311 311 311 311 314 317 316 314 314 314 314 314 314 314 314 314 314 316 317 317 316 316 316 317 317 317 318 318 318 318 318 319 319 318 318 318 318 318 317 316 316 316 316 316 316 316 316 316 316 316 317 316 314 312 312 311 311 311 311 312 311 312
308 308 308 309 309 310 310 311 311 311 310 310 309 309 309 309 309 309 309 309 309 310 310 310 310 310 310 310 311 313 315 316 315 314 313 314 313 313 313 313 314 314 315 316 317 317 316 316 316 317 317 317 318 318 317 318 318 319 319 318 318 317 318 318 317 316 315 316 316 316 316 316 316 316 316 315 314 314 313 312 311 311 311 311 311 311 311 312
308 308 308 308 308 308 309 309 310 311 311 311 310 310 309 309 309 309 309 309 310 310 310 310 310 310 311 310 312 315 317 318 317 314 313 313 313 313 314 313 314 314 315 317 317 317 316 316 317 317 317 317 317 317 317 317 318 319 318 318 317 317 317 317 317 316 315 315 316 316 315 316 316 316 315 315 313 313 312 311 311 311 311 311 311 311 311 311
308 308 308 308 308 308 308 308 309 309 310 311 311 311 310 310 310 309 309 309 310 310 310 310 310 310 310 310 313 315 318 320 317 315 314 314 315 315 315 315 315 315 316 317 318 317 316 316 317 317 317 318 318 317 317 318 318 318 317 318 317 317 317 317 316 316 316 316 316 316 315 316 316 316 315 314 313 313 311 310 311 311 311 311 311 311 311 311
307 308 308 308 308 308 308 308 308 308 308 309 310 311 311 311 310 310 310 310 310 310 310 310 310 311 309 311 315 316 319 320 315 315 315 316 317 317 317 318 317 317 317 318 318 317 316 317 317 316 318 318 318 317 317 317 317 316 317 317 317 318 317 317 317 317 317 316 316 315 316 316 315 315 315 313 313 312 310 310 310 311 310 310 310 310 311 311
307 307 308 308 308 308 308 308 308 308 308 308 309 310 310 311 311 310 310 310 310 310 310 310 310 310 309 312 316 318 320 319 316 315 315 315 316 317 319 319 319 319 318 318 318 317 316 316 316 317 318 318 318 317 317 317 316 316 316 316 317 318 317 318 317 317 317 316 316 315 316 315 314 314 314 313 312 311 310 310 310 311 310 310 310 310 310 311
306 307 307 308 308 308 308 308 308 308 307 307 308 308 309 310 310 311 310 310 310 310 310 310 309 310 310 312 314 315 318 318 316 315 314 314 315 316 318 320 320 320 320 318 317 317 317 315 316 317 318 318 318 318 317 316 316 316 316 317 318 318 318 318 317 318 317 316 316 315 316 316 314 314 313 312 311 310 311 311 310 310 310 310 310 310 310 310
307 307 307 308 308 308 308 308 308 307 307 307 307 307 308 309 309 310 310 310 310 309 309 309 309 310 311 313 314 313 315 315 314 314 314 315 315 316 318 319 319 319 319 319 318 318 317 316 317 317 317 318 318 317 316 316 316 316 317 317 318 319 320 319 317 316 316 315 315 315 318 319 315 313 312 312 311 311 312 311 310 310 310 309 309 310 310 310
307 307 307 307 307 307 307 307 308 307 307 307 307 307 307 307 308 308 309 309 309 308 309 309 310 312 313 314 315 315 315 315 315 315 315 316 316 317 318 318 318 318 318 318 318 318 317 317 317 317 317 317 317 317 317 317 316 317 318 318 319 320 320 318 316 315 315 315 314 315 318 320 316 312 311 311 311 311 312 311 311 310 309 309 309 309 309 309
307 307 307 307 307 307 307 307 307 307 307 307 307 307 307 307 307 307 307 308 308 308 309 310 312 314 315 316 315 315 315 315 315 314 315 316 317 317 317 318 318 317 317 317 317 317 317 317 317 317 317 316 317 317 318 319 318 317 319 321 321 321 320 317 316 316 316 315 313 315 318 318 315 312 312 311 311 312 313 312 311 310 310 309 309 309 309 309
307 307 307 307 307 307 307 307 306 307 307 307 307 307 306 306 306 306 307 307 308 309 311 313 314 314 316 317 316 316 316 315 315 315 315 316 317 318 318 317 317 317 317 316 316 316 316 316 317 317 316 316 317 318 319 320 320 320 320 322 322 322 321 318 316 316 316 314 313 315 317 318 316 313 312 311 311 312 313 313 311 311 310 309 309 309 308 308
308 307 307 307 307 307 307 306 307 307 307 307 307 306 307 307 307 307 307 308 310 312 314 316 316 315 315 316 315 316 316 316 316 316 317 317 317 317 317 317 316 316 316 315 316 316 316 316 316 317 317 317 318 319 321 322 323 322 321 322 322 322 321 319 318 317 316 315 314 315 315 317 317 313 312 311 311 312 313 313 312 311 310 309 309 308 308 308
308 307 307 307 307 307 307 307 307 307 307 307 307 307 307 308 308 309 310 311 312 314 314 315 316 316 316 316 316 316 316 316 316 316 317 317 317 316 316 316 316 316 316 315 316 316 316 316 316 318 318 318 318 319 322 323 323 323 322 322 322 322 321 320 319 317 317 316 316 316 315 317 317 313 312 311 311 311 312 313 312 311 310 309 309 308 308 308
309 308 308 308 307 307 307 308 308 307 307 307 307 308 308 309 311 311 312 313 314 315 315 315 315 315 317 317 316 317 317 317 316 317 317 317 316 316 316 316 316 315 316 317 317 316 316 317 318 320 320 319 318 319 321 322 321 321 322 322 321 321 321 320 319 316 316 317 317 318 318 318 318 314 312 312 312 312 312 313 312 311 310 309 308 308 308 307
312 311 309 308 307 307 308 308 308 308 307 307 308 309 311 314 316 315 314 314 314 313 314 317 316 314 316 318 317 317 317 317 317 317 316 317 316 315 315 315 316 316 316 319 319 316 316 320 321 321 320 319 319 319 319 320 320 320 322 322 321 321 320 320 318 316 316 318 318 319 320 320 320 317 313 312 312 312 313 313 311 310 309 309 308 308 307 307
316 315 313 311 308 308 308 308 308 308 307 308 308 312 317 320 318 318 318 317 315 313 313 316 317 317 317 318 318 318 317 316 317 317 317 316 316 315 316 316 316 317 317 319 319 317 318 321 321 320 319 319 320 320 320 319 319 320 320 320 321 321 321 320 318 316 316 319 320 320 320 319 320 320 315 311 312 311 312 312 311 310 309 309 308 308 307 307
318 318 317 315 313 310 308 308 308 307 307 308 309 312 318 320 317 317 317 317 317 316 316 316 316 317 318 319 318 317 317 317 317 317 317 316 315 316 316 316 317 318 317 318 319 319 320 320 319 319 319 319 320 320 320 321 320 321 321 321 321 321 321 320 317 315 315 318 320 319 320 319 320 321 316 311 311 312 312 312 311 310 309 309 308 307 307 306
319 318 318 318 317 313 309 308 308 308 307 308 309 311 315 316 316 316 316 316 317 316 316 317 317 317 318 318 317 317 317 317 317 317 317 316 315 316 316 316 316 318 318 318 320 321 321 320 318 319 319 319 320 319 320 320 320 321 321 321 321 321 322 321 317 315 315 316 319 319 319 319 319 321 318 313 312 312 312 312 312 311 310 309 308 308 307 306
320 319 319 318 317 314 310 308 309 310 308 308 309 311 313 315 316 316 317 318 318 317 316 317 317 317 318 318 317 317 317 317 318 318 317 316 316 316 316 316 317 318 318 318 319 320 321 320 319 319 319 319 320 319 320 320 319 322 322 321 322 321 321 322 319 317 316 316 317 318 320 321 319 320 320 314 311 311 310 310 310 309 309 308 307 307 306 306
320 320 320 318 317 314 310 310 312 312 310 309 309 310 313 315 317 316 317 319 319 319 319 318 319 319 319 318 317 317 317 317 318 318 317 317 316 317 317 317 317 318 318 319 319 319 319 319 320 321 320 320 321 320 321 322 320 321 323 321 320 320 321 323 323 321 322 323 318 318 324 328 323 322 321 315 311 311 309 308 308 308 308 307 307 306 306 306
321 321 320 319 318 315 313 314 314 313 312 313 311 311 313 315 317 316 317 318 318 319 320 321 320 320 319 319 318 317 317 317 317 318 318 317 317 317 317 317 317 317 318 319 319 319 319 318 320 322 322 323 323 321 322 323 319 321 325 325 321 320 322 324 324 324 327 327 320 318 325 327 323 322 321 315 311 311 309 307 308 307 307 306 306 306 305 306
321 321 321 320 318 315 315 316 316 314 314 315 314 313 314 316 316 316 317 318 319 320 321 320 319 319 318 318 318 318 318 318 317 318 318 317 317 317 317 317 317 317 317 319 321 320 318 318 321 323 323 325 322 320 322 321 321 323 326 326 323 321 323 324 324 325 326 325 321 318 321 323 321 322 321 314 312 312 310 308 308 307 307 306 305 305 305 305
322 322 322 320 318 317 316 317 317 316 316 316 316 315 315 316 316 317 319 319 321 322 320 318 317 317 317 318 318 317 317 318 318 318 317 317 317 316 316 317 317 316 316 319 322 321 319 319 323 323 322 323 320 321 324 321 321 324 323 323 323 322 323 323 324 326 324 324 323 320 320 323 323 322 318 314 314 314 312 309 308 307 306 305 305 305 304 304
323 322 322 320 318 317 316 317 317 317 316 317 317 316 315 316 316 319 321 320 321 321 318 317 317 316 317 317 317 317 316 316 317 316 316 316 316 315 315 316 316 317 317 317 320 323 320 317 319 321 321 321 320 322 326 325 321 321 321 322 322 322 322 322 323 324 323 323 323 322 321 323 325 323 318 316 317 317 314 311 308 307 306 305 305 305 304 304
323 322 321 319 318 317 316 317 318 317 317 317 317 316 315 316 318 322 323 322 322 321 316 316 317 317 317 316 317 317 315 314 314 314 315 315 315 314 315 316 316 317 319 318 319 319 316 313 315 318 319 318 318 318 319 322 321 318 321 322 321 320 320 320 321 321 322 322 323 323 322 321 324 325 320 318 319 318 317 314 309 307 306 305 305 304 304 304
323 322 321 319 319 319 317 317 317 317 317 316 316 314 315 318 320 323 324 321 322 321 316 315 317 317 317 317 318 317 315 314 313 314 314 314 314 314 315 316 316 318 321 321 320 317 315 316 317 316 315 315 318 318 315 316 318 319 322 323 322 321 320 319 319 320 322 323 323 322 322 321 323 324 320 318 318 318 318 315 310 307 306 305 305 304 303 304
324 323 322 320 320 320 318 318 317 317 317 315 314 314 316 320 321 324 324 321 322 323 318 317 318 317 317 318 319 317 316 315 313 314 315 314 315 314 315 317 317 319 321 320 320 320 318 318 318 317 315 315 320 321 317 315 317 320 323 323 325 324 322 322 322 321 322 323 319 319 321 322 322 321 319 318 317 317 317 313 309 307 305 305 305 304 303 303
324 324 323 321 320 319 319 319 318 317 317 314 313 315 318 320 321 323 323 322 323 322 319 318 318 317 318 319 320 318 317 317 314 314 315 315 316 315 315 317 317 320 323 320 320 322 321 320 319 318 316 315 319 320 319 318 318 319 321 323 326 326 325 326 324 323 325 323 317 316 320 323 323 321 320 318 314 312 312 311 310 308 306 305 304 303 303 303
323 323 323 322 321 320 319 319 318 318 316 313 313 316 318 320 322 323 321 322 321 319 318 319 318 318 319 319 320 318 318 318 314 314 317 316 316 316 316 316 316 318 322 321 320 321 323 324 321 319 317 316 318 319 320 320 317 317 320 321 323 326 328 329 327 327 327 323 316 316 321 326 325 321 315 311 308 307 309 310 310 308 306 305 304 303 303 303
322 323 323 322 321 320 319 319 318 318 315 313 315 317 318 320 321 322 320 321 320 318 317 319 319 320 320 320 320 318 319 320 316 315 318 317 317 317 316 316 316 317 320 321 323 321 322 326 322 317 316 316 317 318 319 320 318 318 319 321 322 324 326 327 325 322 322 321 319 319 322 323 320 315 309 306 306 307 308 309 308 307 306 305 304 303 303 303
322 322 322 323 322 321 320 319 318 318 316 314 316 317 318 320 321 321 320 320 320 319 318 319 320 321 321 321 321 319 319 320 318 317 319 318 317 318 318 318 316 317 319 320 324 325 324 326 321 316 316 315 315 318 318 320 321 319 320 321 322 322 323 325 323 319 318 322 322 320 321 320 317 315 310 307 308 307 307 307 306 306 305 304 303 303 302 303
321 321 320 321 322 321 320 319 318 318 316 315 316 317 317 319 320 320 319 319 319 319 319 320 321 322 322 322 321 320 320 320 318 318 319 319 319 318 318 319 317 317 318 318 323 327 326 324 319 317 318 314 311 315 317 317 318 320 321 320 320 322 321 321 323 322 322 324 323 321 320 319 319 319 312 308 309 309 308 308 306 305 305 304 303 303 302 303
320 320 319 320 320 320 320 319 318 318 316 315 315 317 317 318 318 318 319 319 319 319 319 320 321 321 322 323 322 320 320 321 319 318 319 319 320 320 318 319 319 317 317 318 322 325 324 324 319 316 317 315 311 315 319 315 314 316 318 318 320 324 323 321 322 324 325 324 324 323 321 319 320 320 316 312 310 309 308 308 307 305 304 304 303 303 302 302
319 319 318 319 319 320 320 320 319 317 316 315 314 315 317 318 317 317 318 318 319 320 319 320 321 321 322 322 323 320 319 320 319 318 320 320 320 320 318 319 320 318 317 318 322 324 323 325 322 315 314 314 313 316 320 318 315 314 314 316 319 321 322 322 321 322 325 325 324 324 323 322 320 319 320 317 311 309 307 307 307 305 304 304 304 303 303 302
318 317 318 319 319 319 320 319 318 317 316 315 313 314 316 317 317 316 317 318 319 320 319 320 321 321 321 322 323 321 319 320 319 318 320 320 320 321 319 319 321 320 318 318 320 322 321 323 323 316 313 315 315 316 318 318 317 315 316 318 319 318 320 322 321 320 322 323 324 323 323 324 321 318 319 317 312 309 308 307 307 306 305 305 304 303 303 303
317 317 318 319 319 319 319 318 316 316 317 316 313 313 316 317 317 317 316 316 317 319 319 320 321 321 321 321 321 321 319 320 320 319 319 319 320 321 320 319 320 320 319 320 320 321 321 322 322 318 314 315 316 316 316 317 318 317 316 317 317 318 319 321 322 321 320 321 323 323 322 324 320 316 317 318 314 311 308 307 307 306 305 305 304 304 303 303
317 317 318 318 318 319 318 317 315 316 317 316 314 313 315 317 317 317 317 316 317 318 319 320 320 320 321 320 321 322 321 320 320 320 320 320 320 321 320 319 319 319 319 320 319 319 321 322 321 320 316 315 315 315 314 315 317 317 316 316 318 318 318 320 322 322 321 321 322 323 322 322 317 313 315 315 314 311 309 307 306 306 306 305 305 304 304 303
316 317 318 318 318 318 318 317 316 316 316 316 314 314 314 315 317 317 318 318 318 318 319 320 320 319 320 321 321 322 321 320 321 320 320 320 320 319 319 319 319 318 318 320 319 317 319 321 321 321 319 316 315 314 314 313 314 316 317 317 318 318 317 319 321 321 321 321 321 321 321 320 315 311 310 307 307 309 309 308 307 306 306 305 305 305 304 303
315 316 317 318 318 318 318 318 317 316 316 315 314 314 314 315 316 317 318 319 318 318 318 319 319 319 320 322 322 322 322 322 322 321 320 322 321 316 316 318 319 318 318 320 319 317 319 321 321 321 322 321 318 316 316 315 314 315 316 317 317 317 317 319 318 318 319 320 321 320 321 320 316 311 308 306 307 309 308 309 309 307 306 305 305 305 304 303
314 315 316 317 318 318 318 318 318 316 315 315 314 314 315 314 315 316 317 318 318 317 317 318 319 318 319 321 321 321 322 321 321 322 321 321 320 314 312 315 317 317 317 316 316 317 320 322 320 321 323 323 322 321 320 317 314 314 315 315 316 317 318 318 318 318 319 320 321 320 320 321 315 311 310 310 310 310 308 308 309 308 307 306 305 305 304 303
314 315 315 315 316 316 316 317 317 317 316 315 315 314 315 315 315 315 316 317 318 317 317 319 320 318 319 321 320 319 320 319 320 322 321 321 321 314 309 310 312 313 313 313 314 317 321 321 320 321 322 322 323 324 322 318 316 316 315 315 315 316 317 317 317 318 319 321 321 319 319 321 318 314 313 312 311 310 308 306 307 308 307 306 305 305 304 304
314 315 315 315 315 315 314 314 315 316 315 315 314 314 314 315 315 315 315 316 317 317 318 319 320 319 319 320 319 319 319 319 319 319 319 320 319 313 309 309 309 310 310 310 311 317 321 319 319 320 321 320 322 322 321 319 317 317 316 315 315 315 316 318 318 318 319 321 320 319 320 322 320 317 315 313 311 311 308 305 306 307 307 306 306 305 304 304
313 314 314 315 315 315 315 315 314 315 315 315 315 315 315 314 315 315 315 315 315 317 318 319 319 319 319 318 319 319 319 319 319 319 318 319 318 315 312 311 309 308 310 309 310 316 320 318 318 319 319 319 320 320 319 319 319 317 316 315 314 314 315 317 317 317 319 319 319 321 323 321 319 317 316 313 311 310 309 306 305 306 307 306 306 305 304 304
311 312 312 314 314 313 314 314 313 314 315 315 314 314 315 315 314 315 315 315 315 316 317 318 318 318 318 318 319 319 318 319 319 318 318 318 318 316 316 315 311 307 309 312 311 313 317 317 316 317 317 317 317 317 318 318 318 318 318 316 315 314 314 315 316 316 317 318 318 321 323 321 319 317 315 313 310 309 309 307 305 305 306 306 305 305 305 304
309 310 310 311 312 312 312 312 312 313 313 313 314 314 314 315 314 314 315 315 315 315 316 317 317 317 317 318 318 319 318 318 319 319 318 317 317 315 316 317 315 309 308 312 312 311 314 317 315 314 316 317 316 316 317 317 317 317 318 318 317 315 314 314 315 315 316 316 316 317 320 321 319 314 312 311 310 309 308 306 305 305 305 305 305 305 305 304
308 308 308 309 310 312 312 312 312 313 312 311 312 313 313 314 314 314 314 314 314 314 315 316 316 316 316 317 318 318 318 317 318 317 317 317 316 315 315 315 315 312 309 310 312 312 312 314 314 314 316 317 316 316 316 315 315 315 316 317 317 317 316 314 314 315 315 315 316 316 317 319 318 314 311 309 307 307 306 305 304 304 304 305 305 305 305 305
306 307 307 307 308 310 312 312 312 313 312 311 311 311 312 312 312 313 314 313 313 313 314 315 315 315 315 315 316 317 316 317 317 315 314 315 314 313 313 312 313 313 311 309 310 311 310 312 313 314 316 317 315 315 315 314 315 316 316 316 316 316 316 315 314 315 314 314 316 315 316 317 317 315 313 312 310 309 307 306 306 305 304 305 306 307 307 307
Wind_Speed
6 5 5 5 5 5 5 5 5 5 5 5 5 6 6 7 7 8 7 6 5 4 3 2 2 2 3 4 5 5 5 4 5 6 4 4 5 2 2 4 4 5 6 6 6 7 7 5 4 5 4 3 3 3 3 5 4 2 1 1 3 0 2 2 2 3 5 6 5 6 2 0 4 5 3 0 4 5 7 8 5 4 2 1 2 4 5 5
5 5 5 5 5 5 5 5 5 5 5 5 5 5 6 6 6 6 6 5 4 4 3 3 3 3 4 4 6 6 4 4 4 4 5 4 2 4 6 7 7 7 9 9 7 5 4 3 3 4 4 2 2 3 2 4 5 2 1 1 2 2 3 4 7 7 3 6 7 7 3 1 3 4 2 1 4 7 7 9 8 8 5 0 2 4 4 4
5 4 4 4 4 4 4 4 4 4 5 5 5 5 5 5 6 6 6 5 5 4 3 3 3 4 4 5 6 6 5 5 2 1 5 2 5 8 8 7 6 7 8 11 9 4 2 2 3 3 4 2 2 2 1 2 4 1 1 2 2 3 5 7 10 9 8 7 6 6 3 1 2 3 2 2 2 2 5 8 9 10 5 2 3 3 2 1
5 5 5 4 4 4 4 4 4 4 5 5 5 6 6 6 6 6 5 5 5 4 4 4 4 4 5 6 6 6 8 5 2 1 2 3 7 8 8 5 3 6 9 10 8 5 3 2 3 4 5 2 3 1 0 2 3 2 2 1 3 2 3 7 9 8 7 6 5 4 1 1 3 2 1 2 3 2 5 5 7 8 5 3 3 2 1 2
5 5 5 5 5 5 5 5 5 5 5 5 6 6 6 6 6 6 6 5 5 5 5 4 4 5 5 6 6 7 8 3 3 3 4 5 6 6 5 2 3 6 10 10 7 6 5 3 3 3 4 2 4 1 2 4 4 4 3 5 4 4 2 6 7 5 4 4 3 1 2 1 1 2 3 2 1 3 5 3 3 4 6 5 4 3 4 4
6 5 5 5 5 5 6 6 6 6 6 6 6 6 7 7 7 7 6 6 6 5 5 4 5 5 5 6 6 7 6 2 1 2 3 3 4 4 3 3 5 8 10 9 7 6 5 3 3 4 4 2 2 2 3 3 4 2 2 5 5 4 2 5 4 3 2 1 1 1 1 1 3 5 4 2 1 5 7 3 1 3 5 5 6 6 4 4
7 6 6 5 5 6 7 7 8 8 8 8 8 7 7 7 7 7 7 6 6 5 5 5 5 5 5 6 5 5 4 0 1 1 2 2 3 4 4 6 9 10 8 6 5 5 4 3 4 3 4 3 2 3 3 1 3 2 1 5 5 3 2 4 3 2 2 2 3 2 2 3 5 4 3 5 4 7 6 3 2 3 6 7 7 6 4 3
9 8 8 7 7 7 7 8 9 9 10 9 9 9 9 8 8 8 7 7 6 6 5 5 5 5 5 5 4 5 4 4 4 3 3 4 6 7 8 9 9 9 6 3 2 2 2 3 4 4 4 2 3 2 3 2 4 2 1 4 3 1 2 4 4 5 5 5 5 4 4 7 9 6 3 8 8 8 6 4 4 5 7 7 7 5 3 3
10 10 9 9 9 9 8 8 9 10 10 10 11 10 10 9 9 8 7 7 6 6 6 6 6 5 5 4 3 4 2 5 5 4 4 4 6 7 8 9 8 6 5 3 1 1 1 2 3 3 4 4 4 2 4 2 1 2 4 3 1 3 5 6 7 8 8 8 7 5 7 11 10 6 2 8 11 8 6 5 6 6 6 6 5 3 2 2
12 11 11 11 10 10 10 9 9 10 10 11 11 11 11 10 9 9 8 8 7 7 6 6 6 5 5 2 1 2 3 5 4 3 3 3 4 5 6 6 6 4 2 2 1 2 2 2 0 2 4 3 2 1 2 1 1 3 4 5 6 8 7 8 9 10 10 9 10 7 7 8 7 6 2 8 12 9 7 7 7 7 5 4 3 2 3 3
14 13 13 12 12 12 11 11 10 10 11 11 11 12 11 10 10 10 9 8 8 8 7 7 6 6 5 2 3 4 4 6 4 3 3 4 5 5 5 4 3 1 2 1 1 2 3 2 1 2 3 2 1 1 1 1 0 3 4 6 10 12 11 11 11 11 8 5 10 10 6 3 6 3 4 12 13 10 10 9 9 8 5 4 4 4 5 5
16 15 14 14 14 13 13 12 11 11 11 11 11 11 11 11 10 10 10 9 9 8 8 8 7 6 5 5 9 9 7 8 7 7 8 8 8 7 5 4 2 2 2 2 2 3 4 2 2 2 2 2 2 1 1 0 1 3 3 4 8 8 9 14 14 12 9 4 8 9 4 5 6 3 8 14 14 12 11 10 10 8 7 5 5 6 6 5
17 16 16 15 15 15 14 13 12 12 11 11 11 11 11 11 11 10 10 9 9 9 8 7 7 7 6 6 9 11 10 12 12 12 12 10 10 8 7 6 4 3 3 4 4 3 2 2 2 1 3 4 3 0 1 0 2 3 4 3 4 5 5 12 13 10 8 4 8 8 1 5 6 8 12 14 16 16 13 11 10 9 7 6 5 6 6 6
17 17 16 16 15 15 15 14 13 12 12 11 10 10 10 10 11 11 10 10 9 9 8 7 6 6 6 7 9 10 11 13 13 13 12 10 10 10 8 7 6 5 5 5 4 3 3 3 3 3 4 4 2 1 2 2 3 3 3 2 2 3 2 4 10 10 7 4 9 8 2 4 3 9 12 13 15 16 13 12 11 9 8 7 6 5 5 5
17 16 16 16 15 15 15 14 12 12 12 11 10 10 10 10 10 10 10 9 9 8 8 7 6 5 6 8 9 11 13 14 16 16 14 12 11 9 9 9 8 7 6 6 6 5 5 4 4 3 2 3 1 1 3 3 4 2 2 3 2 3 3 2 8 11 6 3 10 8 2 2 4 9 12 13 16 15 13 13 12 10 9 8 7 6 6 6
16 16 16 15 14 14 14 13 12 11 11 10 10 9 9 10 9 10 10 9 8 8 6 5 5 5 4 7 10 11 12 14 16 15 14 13 10 9 11 9 8 8 7 6 5 5 5 4 4 3 2 3 3 3 3 3 3 3 4 3 3 4 4 3 5 9 5 5 8 7 3 1 3 10 13 14 17 15 13 14 13 12 11 9 8 9 8 7
15 15 15 14 14 14 14 12 11 10 11 10 9 9 8 9 9 9 9 8 8 7 5 4 3 5 6 8 9 11 14 15 14 12 11 11 11 12 11 7 6 6 4 4 5 5 6 5 3 4 4 3 3 3 2 3 4 3 4 4 5 5 5 3 2 5 7 5 6 7 6 5 3 11 15 17 18 17 15 15 15 13 12 11 11 10 9 7
15 15 14 14 14 14 13 12 10 10 10 9 9 8 8 8 8 9 9 8 7 4 5 6 5 1 8 13 12 12 14 13 12 11 11 11 12 12 8 5 4 4 4 4 5 7 6 5 3 2 3 3 4 4 3 4 5 4 3 3 4 5 6 4 1 5 8 5 5 6 8 8 5 10 15 18 19 18 17 15 16 15 13 13 12 11 10 9
15 15 14 14 14 14 14 12 10 10 9 9 8 7 7 7 7 8 9 9 9 5 2 8 13 5 2 9 14 13 12 10 9 10 11 12 12 10 8 6 6 8 7 4 5 9 8 4 3 2 3 5 6 6 7 7 6 6 3 1 3 3 4 3 2 5 6 4 5 7 7 8 5 8 12 17 19 18 17 15 16 15 14 14 12 12 12 11
14 14 14 14 14 14 14 12 11 10 9 8 8 6 5 5 4 5 9 14 17 15 8 7 15 12 4 3 10 12 10 8 7 9 12 13 12 11 10 7 8 7 5 4 5 8 8 4 3 5 6 8 7 9 10 9 8 7 3 3 5 4 5 3 3 3 2 2 5 6 6 8 6 6 12 18 18 16 15 15 16 16 16 15 13 13 12 12
14 15 14 13 14 14 14 13 12 11 10 9 9 7 5 6 4 2 6 11 17 20 19 14 12 14 11 7 8 9 8 7 8 10 11 12 12 10 10 10 7 5 7 7 5 3 5 5 6 9 9 9 8 9 10 9 9 7 3 4 5 3 6 4 2 3 2 1 4 5 7 9 9 6 11 17 14 14 19 18 18 19 17 16 15 14 13 13
16 17 16 14 15 14 14 14 14 13 12 10 11 10 9 9 8 6 4 6 12 15 19 20 19 19 17 13 12 9 8 7 8 12 12 14 15 10 12 12 6 4 7 8 4 3 4 6 8 11 10 8 9 7 6 7 7 6 3 2 4 4 5 2 3 2 2 1 3 5 7 8 9 7 8 18 17 17 22 21 20 21 19 17 17 16 16 14
17 17 17 17 16 14 15 15 14 14 13 11 12 13 13 10 9 9 5 5 11 16 19 21 23 24 20 17 17 15 13 10 10 15 16 17 18 14 13 11 7 6 7 8 6 4 5 6 10 15 11 8 8 4 3 3 3 3 3 2 4 4 4 2 0 1 2 2 4 5 7 7 8 9 7 16 17 12 14 15 16 18 19 18 17 17 17 15
18 17 16 16 15 15 15 14 13 14 14 13 13 15 13 9 7 6 5 5 8 13 21 24 24 27 25 21 22 22 20 17 14 16 20 22 20 15 12 11 9 6 6 9 10 9 7 5 7 13 11 9 7 5 4 3 3 4 6 5 5 4 5 5 2 3 3 4 4 4 6 7 8 12 9 7 8 6 10 12 12 15 16 15 16 16 15 14
20 19 17 15 15 15 13 13 15 15 14 13 14 16 14 8 5 3 2 5 6 7 13 19 20 24 25 24 24 21 18 20 20 18 22 27 22 12 9 12 10 5 8 11 9 10 10 6 5 7 8 7 6 5 6 6 3 5 6 8 9 7 6 5 1 2 2 3 3 2 3 5 4 9 8 5 4 5 9 10 12 14 14 15 18 17 15 14
22 20 18 17 16 14 13 14 17 17 15 15 14 14 13 10 6 3 2 2 5 4 5 12 14 14 18 22 22 17 9 14 21 20 20 24 24 15 7 9 8 6 7 7 6 5 4 5 6 6 6 6 6 6 6 8 4 4 4 4 8 7 5 5 5 2 1 3 2 3 3 5 4 5 5 6 6 7 8 9 13 16 17 18 19 19 18 18
24 22 20 19 17 18 19 17 19 18 16 15 13 12 14 13 9 5 3 3 6 5 8 10 11 10 13 19 26 18 2 6 15 18 22 23 24 19 10 7 7 5 3 2 5 2 4 6 4 5 6 5 6 6 6 9 5 4 3 2 2 2 3 2 3 3 3 3 2 4 3 5 8 7 5 8 7 7 8 9 11 17 20 20 19 20 21 22
28 24 22 23 21 22 23 17 17 19 17 13 12 14 16 16 12 7 3 3 3 6 7 7 9 11 12 18 28 19 5 12 12 12 25 28 23 17 10 9 8 6 6 5 5 1 4 8 7 8 7 5 6 4 6 10 5 3 1 3 5 3 1 1 2 4 3 4 3 4 4 4 8 4 5 8 7 7 11 11 11 16 21 21 21 21 21 23
32 27 25 23 20 21 22 17 16 18 16 12 12 15 18 18 12 6 2 3 1 3 4 8 9 11 15 18 24 18 10 8 3 10 24 25 21 12 5 10 9 6 10 12 9 2 1 3 5 8 7 5 4 2 1 7 5 4 4 6 5 3 2 1 2 2 2 5 5 5 6 4 8 3 6 4 4 8 10 9 11 17 22 22 22 22 22 24
32 30 27 24 22 23 24 21 17 15 14 13 12 18 23 17 8 3 3 3 2 1 5 8 8 13 19 15 12 12 8 3 5 13 16 13 14 8 2 7 7 3 5 9 9 2 3 2 1 3 3 3 6 5 6 3 7 8 5 5 4 2 2 1 2 2 1 6 6 8 9 6 6 3 7 5 5 8 8 6 9 15 21 23 24 25 24 25
32 31 30 30 30 29 28 28 22 16 15 13 15 25 25 11 3 4 5 1 2 1 6 5 6 13 17 12 8 8 5 3 8 12 8 5 7 5 2 5 4 2 2 5 5 1 4 2 0 1 3 6 7 4 7 5 6 8 4 4 3 1 3 2 1 2 2 7 5 10 12 10 8 4 4 3 2 3 6 8 11 14 21 25 26 27 27 28
33 32 33 35 35 32 32 32 26 21 18 16 23 30 19 4 1 5 4 3 0 4 7 7 7 10 13 12 9 10 8 6 10 10 7 6 7 7 8 7 7 4 4 6 4 1 3 4 4 3 3 7 6 3 4 5 0 4 4 5 4 1 0 0 3 3 5 7 3 5 8 9 10 6 4 4 0 3 0 9 17 19 24 27 27 28 29 30
34 33 35 36 37 37 36 32 26 26 23 23 29 24 8 2 6 9 8 5 1 1 5 8 9 10 12 11 7 9 8 6 10 10 7 7 7 8 10 9 9 6 4 6 5 2 3 4 7 4 2 9 9 6 4 1 3 6 6 6 5 4 3 3 4 3 5 5 3 1 2 3 4 5 8 6 2 3 4 9 24 27 28 29 29 29 29 31
34 34 37 38 39 40 38 32 30 30 27 29 28 13 3 5 7 9 12 9 3 2 3 6 10 11 12 10 8 10 7 4 10 10 6 7 6 7 8 9 13 9 1 4 5 6 5 4 8 9 5 12 14 11 8 5 5 9 6 6 6 5 4 4 4 4 3 1 3 1 2 3 2 2 3 1 4 3 4 10 23 25 27 28 27 29 29 31
34 35 37 39 40 41 41 38 36 34 32 32 19 6 6 8 6 7 10 8 5 3 3 6 9 9 10 7 6 10 5 3 9 8 6 8 7 8 9 10 15 11 4 4 3 6 8 6 7 9 7 15 16 12 8 8 3 5 4 5 6 4 3 2 2 2 2 1 2 3 3 4 3 0 1 5 4 2 4 12 22 22 24 28 27 29 31 33
33 38 38 41 44 43 44 44 40 40 40 30 11 5 9 8 4 4 5 7 8 4 6 6 6 6 7 4 3 6 2 2 8 7 5 8 7 9 9 7 13 13 9 8 2 3 6 3 2 4 4 10 9 7 9 8 3 3 4 6 3 3 3 3 2 2 3 4 4 4 4 4 1 2 2 5 4 2 1 9 18 21 25 28 28 31 33 34
29 38 42 46 48 46 46 45 39 43 43 26 8 7 8 6 4 3 3 7 10 8 6 5 5 6 7 4 4 7 3 3 8 7 4 5 6 10 11 7 13 17 15 11 3 1 5 1 2 1 2 2 1 1 4 2 3 4 5 5 3 4 1 1 2 2 1 5 4 5 6 4 3 3 2 5 4 4 6 7 13 18 24 26 27 30 33 35
25 32 39 46 49 47 45 42 40 43 36 16 8 10 6 6 7 5 3 6 10 10 7 7 7 7 7 6 6 9 8 4 7 6 5 5 4 9 13 9 12 20 21 16 6 2 3 2 3 1 1 0 3 1 2 3 4 4 3 3 3 1 2 3 2 3 4 5 5 4 6 6 7 6 4 7 10 9 8 8 10 15 22 25 26 30 32 34
22 21 26 37 46 46 43 43 47 45 25 8 8 9 6 8 10 10 8 6 8 9 8 8 7 6 8 8 6 9 11 8 9 7 6 6 4 8 15 11 10 17 22 19 8 1 1 2 3 3 3 2 1 1 5 2 0 2 2 3 1 2 3 4 3 3 3 4 5 3 4 5 7 8 10 12 14 13 13 11 11 16 24 28 30 33 35 37
22 12 13 27 36 38 42 45 45 32 12 7 10 8 6 7 10 18 18 11 4 4 6 7 7 6 7 8 6 7 9 9 9 8 6 7 5 6 12 12 8 12 19 18 9 2 2 2 3 3 3 2 2 4 9 10 8 5 2 3 4 2 1 1 2 2 3 3 4 5 6 5 3 5 11 16 14 14 16 15 13 18 27 31 32 36 39 40
22 10 10 20 21 28 41 39 26 13 5 6 9 9 8 5 6 17 23 18 9 3 2 4 6 7 6 8 7 6 7 8 8 7 6 7 7 4 9 15 11 10 12 10 8 5 3 3 4 1 2 4 4 4 8 9 8 8 7 8 9 6 3 1 4 4 4 4 3 4 8 6 2 1 3 10 11 13 19 18 15 21 29 31 34 38 40 42
20 9 10 16 14 24 37 24 8 8 6 7 13 11 6 4 5 12 17 19 14 7 3 2 4 5 5 8 8 4 6 6 7 9 6 9 10 5 11 21 18 16 13 6 7 8 4 3 4 3 4 5 3 2 3 3 2 2 4 5 6 5 6 6 6 5 5 4 1 1 6 6 1 3 4 2 4 11 20 20 17 22 30 32 34 37 39 41
20 14 13 13 16 25 28 11 5 9 4 7 14 11 6 5 6 9 13 15 13 9 7 4 3 6 5 5 6 4 6 6 8 10 8 9 9 3 10 23 20 15 10 4 3 4 4 2 3 2 1 0 1 1 1 2 2 1 3 3 6 8 9 7 4 3 4 5 3 2 6 6 2 4 5 4 5 8 15 20 19 21 26 30 32 34 37 37
21 21 17 13 18 26 19 5 4 8 6 7 9 8 9 8 7 11 12 13 12 8 8 7 5 6 5 1 1 2 4 5 8 11 8 8 6 1 3 16 18 13 7 4 6 9 6 3 3 2 3 2 2 2 1 1 1 2 4 5 8 9 7 3 1 1 4 9 8 6 8 6 2 2 2 3 5 8 8 15 20 21 23 27 28 30 34 35
16 15 17 21 28 30 22 14 11 8 8 10 8 9 12 7 11 18 14 11 12 10 7 8 8 8 4 2 1 2 4 5 5 6 7 5 2 2 3 5 11 10 6 4 9 13 8 3 6 6 7 9 7 5 4 3 2 3 5 7 10 11 11 8 3 4 9 8 8 8 9 4 2 1 2 2 4 6 6 10 17 20 24 27 28 29 32 34
12 6 8 15 27 29 23 22 20 10 8 11 7 9 13 8 9 18 16 11 13 13 9 5 6 8 5 3 6 9 10 7 1 1 4 4 1 3 4 3 1 3 4 7 10 10 4 2 9 12 12 14 11 5 3 7 7 7 9 12 14 15 15 10 5 9 9 3 6 13 11 5 4 4 5 4 5 5 5 8 13 18 23 26 28 29 31 33
11 7 6 7 13 18 13 12 13 8 10 14 7 5 14 13 7 10 14 14 14 16 11 4 5 9 9 11 12 12 12 9 3 3 6 3 1 3 3 3 3 2 4 4 6 6 3 3 12 16 17 19 14 6 4 8 11 13 14 16 17 16 15 12 12 15 8 4 10 13 10 9 10 8 8 8 7 7 7 11 16 19 23 26 27 28 28 30
7 8 13 11 5 6 9 11 10 9 11 14 9 6 12 16 11 9 13 15 15 16 10 5 10 15 15 15 12 10 11 10 8 11 10 4 3 0 2 2 1 1 3 2 1 4 4 7 11 12 15 19 15 7 3 5 6 9 12 16 18 17 18 18 21 20 10 9 16 9 11 15 12 9 10 10 10 11 13 19 21 21 22 25 27 28 29 30
9 5 11 15 7 2 9 12 8 7 10 10 9 9 11 15 17 13 9 8 9 13 12 10 14 18 17 15 11 9 10 10 12 14 10 6 5 4 2 2 2 2 3 2 1 1 3 6 7 6 10 16 15 11 8 5 5 6 9 13 15 19 22 23 24 23 16 17 19 8 7 12 8 9 11 12 15 16 15 19 22 22 24 25 27 29 31 32
11 5 3 9 8 4 6 8 5 4 6 6 7 9 10 14 17 14 10 9 8 10 14 17 18 16 15 14 12 12 14 14 14 12 7 7 5 5 5 4 3 2 2 4 2 1 3 4 3 5 5 14 14 12 9 6 6 9 9 10 14 18 21 20 20 19 16 18 20 13 8 9 4 7 9 12 17 17 16 18 21 23 26 27 27 28 30 31
19 13 6 2 3 6 6 5 5 5 4 4 5 6 7 12 14 10 8 12 13 10 12 19 21 13 10 11 13 16 18 15 12 9 8 11 9 8 8 5 6 5 3 4 3 2 4 2 1 5 4 12 13 11 11 8 4 8 13 17 19 17 14 16 18 16 15 17 18 14 11 9 4 6 7 9 13 14 13 16 19 21 25 26 25 26 27 29
22 20 16 8 3 6 6 4 6 6 4 6 8 7 7 10 10 7 4 7 13 14 13 17 17 9 6 11 17 22 24 19 14 11 10 13 10 8 9 9 10 9 6 5 3 2 5 3 2 4 5 10 8 7 9 7 4 8 15 19 20 16 12 13 15 16 17 16 13 11 10 7 4 6 5 4 5 7 10 16 18 18 21 22 21 21 22 24
Wind_Direction
164 166 169 169 171 172 174 174 173 173 173 177 181 185 183 180 181 181 187 193 200 215 230 250 283 311 327 335 333 332 332 338 343 340 331 308 308 300 139 119 96 74 60 51 53 34 16 13 351 345 348 345 28 12 347 4 360 349 353 239 274 167 83 326 44 87 148 133 125 126 110 294 124 143 141 152 211 173 131 118 116 117 131 92 7 331 306 298
168 169 170 172 175 179 181 178 180 179 178 181 181 185 183 182 186 190 200 209 217 229 240 265 290 307 323 330 328 332 327 331 346 342 334 318 270 151 134 120 97 72 53 44 47 23 354 358 334 334 323 287 59 33 37 355 332 324 303 297 342 47 46 13 55 51 56 107 116 110 80 347 95 108 108 320 207 183 128 116 121 94 87 336 351 327 299 283
183 182 182 183 184 189 192 190 193 192 190 192 191 193 191 193 199 203 212 220 228 239 256 274 293 303 318 324 329 335 322 333 19 316 326 348 148 145 135 121 87 53 35 31 35 25 351 351 331 330 312 288 76 28 99 339 321 41 337 354 49 84 70 45 66 57 37 69 99 104 90 339 92 94 91 327 295 201 106 116 128 100 100 258 333 315 280 253
197 199 201 203 206 209 210 206 207 207 208 206 205 203 203 209 210 214 219 228 239 247 261 274 291 302 317 324 333 332 321 338 85 140 350 108 141 148 143 130 48 19 8 13 24 26 31 358 336 343 303 271 112 322 29 43 336 344 347 70 65 29 81 68 72 72 54 59 64 73 25 293 133 125 249 285 321 73 94 105 131 126 160 230 301 277 178 129
206 209 211 215 219 227 230 227 224 221 222 219 218 216 213 218 220 223 226 233 243 247 259 272 287 303 315 321 334 333 327 351 114 99 92 120 141 155 162 182 329 342 348 4 24 21 36 25 329 314 284 229 142 207 49 49 324 323 42 90 66 2 65 96 85 85 72 62 63 51 313 331 115 268 263 242 288 143 136 136 150 173 198 214 231 202 151 130
216 220 221 227 229 234 238 240 239 235 235 233 230 226 222 224 225 227 229 233 241 246 258 270 286 301 311 320 334 337 337 351 142 109 111 129 149 167 201 258 301 320 338 6 27 14 24 11 302 283 285 268 125 98 82 36 331 332 78 84 66 18 67 112 116 120 97 59 243 250 277 350 323 289 259 181 158 174 175 199 216 208 191 181 186 178 157 137
222 228 232 236 237 241 243 244 244 241 240 238 236 235 232 229 227 228 228 233 238 246 257 270 284 297 309 320 335 340 342 326 212 220 213 220 215 234 263 277 294 313 336 13 24 360 358 315 297 309 301 289 33 64 84 345 296 268 193 105 82 19 68 129 171 198 186 209 230 259 271 264 272 275 223 154 169 196 199 228 226 176 163 163 166 164 161 152
228 231 235 238 241 244 245 246 245 244 241 239 239 239 238 236 235 235 233 236 238 248 257 266 280 293 306 323 341 330 304 212 210 268 270 256 260 266 273 281 294 309 334 11 37 342 316 299 318 331 317 353 19 22 52 337 257 264 20 94 91 310 202 174 193 216 215 212 230 252 255 256 250 245 200 161 182 213 211 213 193 166 156 160 159 156 165 172
236 237 239 241 243 245 247 249 248 247 244 241 240 238 240 240 240 243 241 244 244 250 258 263 277 288 300 326 342 315 267 197 214 274 283 271 273 277 279 284 293 306 343 2 64 77 323 333 355 358 333 351 355 356 54 26 282 9 10 22 336 237 215 200 205 218 213 214 224 224 241 253 239 227 202 165 189 212 201 186 170 159 158 158 158 163 190 213
243 245 248 248 248 249 250 253 252 251 246 243 243 241 243 242 243 246 247 249 251 255 260 265 275 283 294 321 320 276 207 199 230 265 277 287 284 285 286 290 296 303 21 348 45 95 316 317 350 345 318 305 319 5 46 15 18 5 339 319 285 262 242 212 220 230 214 213 211 201 246 247 200 208 205 170 196 207 180 166 155 156 170 178 182 197 226 239
244 249 253 254 255 255 254 256 257 255 250 245 244 243 245 245 245 246 248 251 254 259 263 268 274 279 283 236 209 233 213 221 238 244 269 297 293 291 292 291 297 267 142 303 316 180 223 239 227 290 306 316 356 134 55 321 342 348 324 302 271 250 241 223 227 232 209 207 205 205 257 216 155 216 195 176 192 186 164 158 155 165 184 203 214 224 236 237
246 249 254 257 259 260 260 261 261 259 254 249 246 246 247 247 247 248 250 252 254 261 263 268 274 272 270 243 235 241 238 243 250 260 275 287 282 277 280 278 271 250 161 161 268 229 207 204 202 280 301 314 327 169 108 29 285 315 286 289 280 253 238 219 214 214 197 187 188 189 262 230 193 188 161 173 177 160 158 160 159 174 195 214 227 228 229 232
247 250 254 258 260 262 263 263 263 261 256 251 247 247 248 249 249 250 250 252 254 258 262 267 271 268 262 251 252 252 248 253 260 268 274 275 271 265 263 258 244 244 195 180 233 239 211 219 200 267 291 288 309 277 10 225 190 288 251 222 287 292 257 206 189 178 173 174 174 164 250 247 200 147 149 169 168 156 161 167 167 180 195 207 225 235 232 227
248 250 252 255 259 261 263 264 264 261 256 254 250 248 248 248 248 249 250 252 254 256 261 263 264 263 253 252 263 257 249 253 257 263 267 265 260 257 253 249 239 230 222 221 245 259 238 219 204 240 254 252 303 347 293 238 186 276 275 201 223 275 288 176 154 153 162 184 177 168 259 261 146 139 161 174 170 164 167 171 175 181 193 205 210 231 249 244
246 248 249 251 255 258 261 263 260 257 255 254 253 252 249 247 247 248 248 248 250 253 256 259 257 254 256 260 260 253 249 249 253 258 260 257 252 249 244 239 237 234 238 249 254 253 234 202 213 240 199 193 229 263 271 244 196 204 247 260 223 196 230 162 155 172 175 178 182 179 252 239 145 154 170 175 175 173 173 175 179 181 190 204 202 206 230 243
246 245 246 248 250 254 258 259 256 254 255 255 256 255 252 251 248 246 246 244 246 249 247 253 246 237 257 261 248 248 250 243 249 256 253 249 241 235 240 237 236 243 246 251 245 229 211 193 228 241 164 168 201 214 263 274 246 197 189 254 252 205 212 167 177 198 167 136 187 204 242 269 143 166 175 181 181 179 183 180 180 187 189 194 197 194 209 228
247 243 243 244 244 248 250 253 253 251 254 256 255 255 252 250 247 245 243 238 239 239 227 219 229 243 251 249 243 247 250 245 247 250 245 240 227 225 239 235 230 244 234 220 216 202 197 190 213 238 208 217 228 197 222 258 247 221 188 220 246 237 228 193 194 210 174 161 206 213 233 261 165 165 180 189 185 185 192 186 181 189 189 190 196 193 200 207
248 244 241 240 241 244 247 249 250 252 254 254 254 254 247 244 244 242 239 234 228 223 228 205 171 246 251 235 231 237 243 244 243 243 237 227 221 222 223 207 202 193 166 186 197 185 190 187 180 251 227 209 223 192 188 214 226 249 223 212 252 253 238 229 181 179 178 193 233 208 222 246 194 167 185 192 189 191 197 191 185 189 189 193 195 193 193 193
249 247 242 239 240 242 245 246 247 252 251 249 249 243 242 241 239 244 238 223 200 179 225 205 189 187 291 224 218 223 231 236 236 233 225 217 212 201 185 178 176 165 163 172 185 184 181 169 163 228 234 208 210 204 210 222 241 280 297 285 294 295 266 259 112 169 181 191 233 223 234 250 210 173 188 193 192 196 201 192 185 188 190 194 193 194 195 197
252 252 246 241 242 243 245 245 246 249 246 243 233 218 226 220 218 241 223 217 218 217 231 215 204 219 259 195 203 214 217 219 220 214 215 211 198 182 171 166 169 180 197 176 169 183 176 177 201 207 219 217 212 212 225 241 258 279 314 296 287 290 277 277 117 175 194 189 230 236 253 263 249 201 189 191 191 200 205 190 183 188 190 193 191 192 195 200
253 255 252 246 243 244 244 243 242 243 238 229 211 191 194 200 194 192 201 229 242 237 238 237 225 234 245 224 207 213 204 189 194 206 213 198 179 171 169 168 165 194 225 202 158 144 178 208 222 216 222 230 233 229 227 232 248 261 267 280 279 264 266 270 138 163 97 59 255 265 272 268 266 243 180 176 184 204 205 191 186 191 191 194 193 190 193 203
248 251 253 250 246 243 240 237 237 239 235 221 204 194 201 209 208 210 218 264 264 253 247 243 238 242 247 236 221 210 195 177 185 205 202 176 172 174 172 177 188 195 205 202 149 102 219 233 228 227 232 237 246 255 248 232 235 246 245 273 272 262 274 299 101 134 90 72 265 278 279 268 267 264 183 176 191 207 207 200 195 193 189 190 190 190 195 204
242 245 247 248 247 243 236 231 231 233 231 218 204 202 212 216 215 232 255 283 273 260 248 242 239 236 233 227 222 213 207 203 195 205 197 173 177 189 179 177 206 210 194 196 186 181 219 230 224 225 233 243 238 228 261 270 250 238 223 232 251 252 263 274 102 204 184 210 266 294 290 273 265 270 223 189 192 192 191 192 191 190 189 190 192 194 198 201
242 242 242 242 241 238 231 225 223 227 227 218 208 206 212 218 220 240 257 268 275 256 243 242 239 231 223 223 229 223 220 223 213 205 197 181 177 187 191 189 203 218 208 199 203 217 232 233 209 209 216 231 229 199 197 230 247 232 215 216 237 239 235 237 196 168 204 233 244 282 293 273 242 243 234 178 162 153 163 173 173 176 181 184 188 192 198 201
241 242 241 235 231 228 221 217 218 221 224 220 214 209 206 202 203 215 256 268 261 242 240 235 229 231 223 221 227 221 221 230 224 211 199 192 186 180 192 200 201 217 216 205 207 232 243 229 182 187 202 202 209 220 193 185 229 242 218 212 221 236 250 260 288 72 333 280 219 169 270 273 242 233 220 147 140 172 173 186 188 182 180 181 183 183 185 189
239 240 239 236 229 213 201 214 223 222 223 223 213 205 196 177 168 173 121 305 264 207 182 196 204 220 212 205 203 197 220 235 219 211 202 199 196 186 183 193 199 223 218 206 216 241 232 185 164 165 176 173 196 231 191 172 208 249 249 229 214 227 257 293 323 331 281 278 233 150 215 271 297 270 214 165 193 199 183 200 204 198 196 193 191 189 185 181
238 237 237 236 225 203 196 214 226 218 219 223 205 184 183 172 160 143 110 304 267 168 140 170 184 189 194 191 182 179 217 172 180 197 194 192 194 192 195 188 184 218 221 193 226 223 124 152 158 151 163 175 198 220 188 167 182 231 281 353 131 189 247 264 290 260 244 298 277 173 190 274 281 262 197 167 187 204 202 210 207 200 200 199 197 196 194 187
235 233 233 230 222 211 207 215 222 216 217 218 194 177 174 167 156 133 121 265 248 135 142 169 173 173 171 177 179 177 138 135 146 187 184 183 190 192 208 207 183 191 193 197 223 231 126 168 170 163 177 200 198 216 193 169 169 222 211 61 87 93 37 284 258 252 285 319 265 188 164 264 274 247 149 161 185 213 216 210 205 197 193 194 193 193 195 191
231 228 228 223 218 215 212 212 216 218 217 204 185 176 168 158 146 115 130 238 234 89 142 160 158 161 151 164 185 179 140 133 129 177 178 183 188 184 209 217 208 198 198 211 224 253 73 178 175 174 196 212 175 12 255 174 170 187 142 80 76 83 73 61 250 236 298 273 234 186 164 219 271 245 142 172 211 223 224 205 195 192 187 188 186 184 187 187
227 224 222 215 212 210 208 208 206 208 204 189 177 165 158 151 131 111 187 213 288 38 122 148 156 160 156 159 189 181 147 92 91 147 170 185 186 183 165 198 221 243 209 223 230 201 100 108 258 197 195 156 124 52 11 93 138 147 131 89 86 82 78 75 243 120 283 261 216 184 182 191 270 246 163 190 224 210 205 174 175 181 179 183 183 179 179 180
229 224 219 213 213 211 206 204 196 187 184 177 163 154 149 139 102 185 198 163 312 168 126 148 158 157 165 163 170 180 160 113 129 145 159 172 182 198 166 169 207 278 284 252 242 159 121 129 7 157 123 111 111 68 18 40 126 137 121 112 111 53 46 35 249 140 225 254 208 185 188 188 230 246 152 191 265 203 180 163 169 173 174 179 180 179 179 178
233 228 223 215 215 215 212 209 198 178 173 168 158 154 148 133 216 213 195 90 357 191 155 165 165 159 174 176 173 179 171 153 161 167 166 167 182 196 198 189 172 178 235 231 217 171 202 196 154 131 161 159 137 95 35 4 283 156 132 130 129 147 22 298 206 184 228 251 253 195 189 203 231 246 224 222 342 23 75 167 170 169 173 178 178 179 180 179
236 234 230 220 216 216 215 216 201 181 175 167 160 157 147 172 199 207 199 167 162 199 142 147 161 166 172 183 186 175 177 172 168 173 168 169 190 205 217 216 192 198 218 189 188 197 235 214 167 149 212 193 179 164 173 255 205 183 160 154 162 171 212 230 204 221 237 241 287 269 166 245 271 264 243 225 134 25 5 167 174 172 174 177 177 178 178 179
237 237 236 227 221 219 217 217 204 187 176 164 158 155 175 203 200 200 202 202 188 91 108 135 156 170 177 192 186 164 177 187 164 168 165 166 195 213 218 222 214 219 163 153 191 186 210 257 184 175 176 179 191 203 187 144 169 194 178 171 187 175 190 213 196 223 239 242 301 299 153 197 215 263 249 110 86 32 34 145 165 168 171 172 172 175 178 181
236 238 238 233 226 220 218 216 208 195 176 162 160 167 187 200 211 202 204 206 191 139 129 150 156 172 190 202 182 163 172 176 162 170 182 183 203 208 202 211 208 205 176 184 207 172 207 257 178 166 158 168 191 213 175 121 152 210 174 192 218 191 188 235 204 167 130 350 287 214 225 225 198 250 106 93 83 55 69 135 148 155 164 168 170 175 179 182
237 235 234 234 231 224 218 214 209 200 181 165 167 206 197 210 205 177 183 183 187 153 121 154 168 179 195 194 185 178 143 100 160 176 203 203 223 221 210 207 196 196 194 191 187 149 192 261 117 128 137 167 192 213 179 156 173 189 172 200 206 128 174 231 280 67 101 274 259 179 241 281 282 281 165 133 113 103 170 150 148 156 164 168 174 178 180 183
236 232 226 226 229 227 217 211 208 198 184 172 185 204 203 225 200 162 157 171 183 166 148 193 190 177 192 189 189 190 155 105 169 184 189 191 230 222 214 208 185 195 206 198 214 217 167 215 288 144 146 180 5 338 189 155 90 132 182 195 116 59 36 186 269 353 155 253 258 178 215 228 196 241 184 152 166 188 215 184 158 164 169 174 180 181 182 184
233 232 225 224 228 225 216 214 210 195 184 179 203 206 210 218 201 196 184 175 180 173 185 224 196 170 194 198 181 178 172 158 175 189 183 182 224 201 195 204 186 193 206 203 216 288 158 193 266 351 61 64 25 49 187 15 51 124 186 219 126 125 230 153 192 247 200 241 270 209 209 207 203 212 175 186 200 193 198 192 175 175 178 182 183 182 184 185
231 230 229 230 228 223 220 218 207 193 184 183 200 205 222 217 203 204 214 206 184 180 201 222 209 194 202 201 182 169 179 184 174 181 192 190 217 189 181 194 193 191 198 197 203 262 153 191 250 323 9 92 74 212 185 176 125 81 351 290 196 151 192 167 183 218 190 241 276 254 226 228 216 193 174 195 203 186 183 192 192 189 186 186 184 183 185 186
228 229 248 238 226 224 222 212 200 192 185 187 194 201 209 212 203 204 216 229 207 192 212 213 211 216 213 214 204 172 184 197 178 185 206 188 196 203 182 182 187 184 187 191 196 167 114 198 226 319 345 126 165 210 191 183 189 188 193 220 203 174 120 140 226 208 178 237 264 260 259 251 226 186 179 191 195 182 181 189 194 192 189 189 187 186 187 189
221 228 256 236 225 222 213 201 193 196 199 181 197 212 203 199 200 199 210 224 237 264 241 215 216 218 221 226 218 172 177 202 189 191 216 197 201 229 182 179 179 167 166 183 199 181 149 195 191 162 251 217 211 212 200 192 191 194 197 194 193 186 155 189 242 209 188 222 215 231 260 255 247 324 175 181 186 184 185 186 187 190 190 189 191 191 191 191
213 223 240 227 220 207 199 193 192 201 200 195 203 209 186 158 186 190 198 213 227 244 241 234 228 215 218 230 231 188 164 196 202 197 212 210 212 221 183 183 179 160 152 169 203 184 135 138 190 198 209 214 229 214 181 172 167 213 233 202 183 183 179 196 225 203 189 224 178 162 269 267 290 2 20 85 157 176 185 186 182 187 190 190 192 193 194 194
214 223 231 224 222 206 193 190 215 197 208 218 207 206 189 175 185 182 186 198 209 220 221 222 211 212 222 230 240 218 174 189 210 206 214 215 213 227 188 185 175 156 154 168 195 162 114 125 194 233 291 307 282 252 121 77 72 309 270 195 180 202 200 198 218 175 181 218 192 182 253 264 325 7 10 26 76 132 173 184 182 182 187 191 192 192 193 195
218 224 223 208 207 206 196 186 205 202 217 209 202 212 209 207 201 188 189 194 193 197 211 215 203 208 219 186 234 235 187 203 221 214 216 213 206 340 181 181 172 162 168 182 168 160 158 169 162 179 277 271 249 249 255 31 113 211 227 205 210 215 201 204 274 87 238 223 190 196 239 245 286 3 16 34 74 93 136 173 180 181 184 189 191 190 192 193
216 225 223 208 201 201 201 204 201 203 212 203 200 207 205 214 216 207 203 195 193 194 204 219 219 214 207 96 73 265 235 236 242 229 232 226 196 20 7 184 178 176 174 154 157 161 165 167 163 184 229 233 227 227 214 186 165 217 212 198 217 215 198 205 204 209 240 220 174 206 238 256 314 218 156 105 97 97 116 155 173 182 186 187 188 188 190 192
197 208 220 209 210 214 216 211 202 194 197 200 204 206 205 215 215 209 208 204 202 203 205 212 210 208 204 198 228 243 241 239 252 297 251 232 102 10 348 339 344 145 126 119 141 154 147 169 190 201 221 229 234 242 178 144 154 204 205 194 209 214 205 203 200 215 226 183 192 222 224 239 271 220 196 185 158 158 163 162 168 177 183 186 187 188 190 193
186 191 190 183 216 230 238 225 209 200 189 188 183 191 204 213 213 193 200 210 209 206 212 215 184 194 203 208 222 235 235 232 207 215 238 212 103 355 347 7 14 64 103 108 134 138 117 206 209 212 225 234 241 246 167 156 178 202 203 200 207 210 204 202 216 221 191 148 237 229 193 214 234 206 205 206 180 177 184 185 183 176 178 184 185 187 190 193
209 194 193 185 186 217 229 228 216 213 199 186 183 190 194 206 215 193 194 212 213 203 205 215 206 209 209 206 213 227 227 228 227 228 230 194 145 94 355 356 329 143 104 72 99 118 142 220 222 215 232 245 250 251 212 188 204 205 201 206 207 203 202 206 220 224 192 200 240 218 169 211 222 191 201 200 183 190 191 191 189 178 176 180 181 186 191 194
245 227 195 193 193 205 225 224 206 208 212 191 190 202 192 199 211 206 192 199 210 203 199 209 216 215 212 207 207 216 217 216 225 230 220 192 174 168 191 261 233 173 123 129 243 108 164 228 222 202 241 255 251 250 247 238 250 242 220 214 209 205 206 208 219 225 214 223 241 225 190 229 222 183 200 198 188 186 176 176 178 176 179 180 182 189 193 197
241 256 201 190 201 202 207 204 171 179 218 206 201 206 200 205 211 210 197 181 188 200 200 213 223 214 206 208 206 219 224 216 225 232 199 183 201 190 199 210 166 158 155 150 172 220 198 226 195 154 242 257 245 242 244 234 244 256 251 236 222 215 211 213 222 226 222 233 242 242 250 263 236 179 185 176 169 159 148 158 168 177 184 182 184 192 196 200
240 244 267 297 213 195 184 176 165 183 209 205 211 206 203 215 214 207 206 201 202 201 194 213 226 217 200 209 211 223 229 221 230 240 190 189 205 197 200 190 138 137 176 163 151 175 186 220 110 129 216 252 240 227 232 241 262 267 259 245 232 221 212 214 222 222 218 228 237 239 245 251 218 158 151 151 152 146 148 159 163 175 185 186 190 197 201 206
241 243 250 270 275 209 197 167 171 197 202 188 201 206 204 221 217 200 216 222 215 217 211 215 225 218 200 215 220 228 236 235 242 246 211 206 212 191 190 187 158 152 169 163 140 165 177 182 180 166 214 252 243 201 213 236 258 253 251 243 231 222 214 217 224 222 218 219 225 232 234 226 177 139 142 157 162 160 163 163 166 179 188 191 199 205 211 217